This demonstration page uses our WeatherBlox Daily Observations layout. Learn more.

Left ArrowRight Arrow

39.08367, -84.50855

Hourly Observations for November 3, 2015

Temp ( °F °C ) Dew Point ( °F °C ) Humidity (%) Winds ( mph kmh ) Pressure ( in mb ) Visibility ( mi km ) Precip ( " mm )
12:00 am 00:00 Clear with Fog 43 6 43 6 100 100 Calm 30.09 1019 1 1 0.00 0.00
12:13 am 00:13 Clear with Mist and Fog 43 6.1 43 6.1 100 100 Calm 30.09 1019 2 3 0.00 0.00
12:21 am 00:21 Clear with Mist and Fog 40 4.4 40 4.4 100 100 Calm 30.09 1019 2 3 0.00 0.00
12:30 am 00:30 Clear with Fog 43 6 43 6 100 100 Calm 30.09 1019 1 1 0.00 0.00
12:36 am 00:36 Clear with Mist and Fog 40 4.4 40 4.4 100 100 Calm 30.09 1019 2 3 0.00 0.00
12:44 am 00:44 Clear with Mist and Fog 41 5 41 5 100 100 Calm 30.09 1019 5 8 0.00 0.00
12:51 am 00:51 Clear with Mist and Fog 43 6 43 6 100 100 Calm 30.09 1019 2 3 0.00 0.00
12:53 am 00:53 Clear with Mist and Fog 41 5 41 5 100 100 Calm 30.10 1019 2 3 0.00 0.00
1:10 am 01:10 Clear 39 4 39 4 100 100 Calm 30.09 1019 9 14 0.00 0.00
1:15 am 01:15 Mostly Clear with Mist and Fog 40 4.4 40 4.4 100 100 Calm 30.09 1019 3 4 0.00 0.00
1:20 am 01:20 Mostly Cloudy with Mist and Fog 39 4 39 4 100 100 Calm 30.09 1019 1 2 0.00 0.00
1:30 am 01:30 Mostly Clear with Mist and Fog 39 4 39 4 100 100 Calm 30.09 1019 2 3 0.00 0.00
1:36 am 01:36 Mostly Cloudy with Mist and Fog 41 5 41 5 100 100 Calm 30.09 1019 1 1 0.00 0.00
1:44 am 01:44 Mostly Cloudy with Fog 41 5 41 5 100 100 Calm 30.09 1019 1 1 0.00 0.00
1:47 am 01:47 Mostly Clear with Mist and Fog 41 5 41 5 100 100 Calm 30.12 1020 2 2 0.00 0.00
1:50 am 01:50 Clear with Mist and Fog 41 5 41 5 100 100 Calm 30.12 1020 3 5 0.00 0.00
1:53 am 01:53 Clear with Mist and Fog 41 5 41 5 100 100 Calm 30.10 1019 4 6 0.00 0.00
2:06 am 02:06 Clear with Mist and Fog 40 4.4 40 4.4 100 100 ESE 3 6 30.09 1019 2 3 0.00 0.00
2:22 am 02:22 Clear with Mist and Fog 41 5 41 5 100 100 N 3 6 30.09 1019 3 5 0.00 0.00
2:53 am 02:53 Clear with Mist and Fog 41 5 41 5 100 100 Calm 30.09 1019 4 6 0.00 0.00
3:22 am 03:22 Mostly Clear with Mist and Fog 39 4 39 4 100 100 Calm 30.09 1019 1 2 0.00 0.00
3:24 am 03:24 Mostly Cloudy with Mist and Fog 39 3.9 39 3.9 100 100 Calm 30.09 1019 1 1 0.00 0.00
3:32 am 03:32 Clear with Mist and Fog 39 4 39 4 100 100 Calm 30.09 1019 1 2 0.00 0.00
3:40 am 03:40 Clear 39 4 39 4 100 100 Calm 30.09 1019 9 14 0.00 0.00
3:53 am 03:53 Clear with Mist and Fog 41 5 41 5 100 100 ENE 3 6 30.10 1019 4 6 0.00 0.00
4:06 am 04:06 Clear with Mist and Fog 39 4 39 4 100 100 NE 3 6 30.12 1020 3 4 0.00 0.00
4:15 am 04:15 Clear with Mist and Fog 41 5 41 5 100 100 Calm 30.12 1020 5 8 0.00 0.00
4:22 am 04:22 Clear with Mist and Fog 39 4 39 4 100 100 ENE 3 6 30.12 1020 2 3 0.00 0.00
4:30 am 04:30 Clear with Mist and Fog 41 5 41 5 100 100 ENE 3 6 30.12 1020 3 5 0.00 0.00
4:53 am 04:53 Clear with Mist and Fog 41 5 41 5 100 100 NNE 3 6 30.12 1020 5 8 0.00 0.00
5:34 am 05:34 Clear with Mist and Fog 39 4 39 4 100 100 Calm 30.12 1020 2 3 0.00 0.00
5:44 am 05:44 Clear with Fog 41 5 41 5 100 100 Calm 30.12 1020 1 1 0.00 0.00
5:53 am 05:53 Clear with Fog 39 3.9 39 3.9 100 100 ENE 3 6 30.14 1021 1 1 0.00 0.00
6:09 am 06:09 Clear with Mist and Fog 40 4.4 40 4.4 100 100 Calm 30.15 1021 6 10 0.00 0.00
6:24 am 06:24 Clear with Mist and Fog 39 4 39 4 100 100 ENE 3 6 30.15 1021 2 2 0.00 0.00
6:34 am 06:34 Clear with Mist and Fog 39 4 39 4 100 100 NE 3 6 30.15 1021 3 5 0.00 0.00
6:53 am 06:53 Clear with Mist and Fog 40 4.4 40 4.4 100 100 Calm 30.16 1021 4 6 0.00 0.00
7:00 am 07:00 Clear with Mist and Fog 39 4 39 4 100 100 Calm 30.15 1021 2 3 0.00 0.00
7:10 am 07:10 Sunny 39 4 39 4 100 100 Calm 30.15 1021 10 16 0.00 0.00
7:53 am 07:53 Sunny 43 6.1 43 6.1 100 100 Calm 30.17 1022 10 16 0.00 0.00
8:53 am 08:53 Sunny 48 8.9 47 8.3 96 96 Calm 30.19 1022 10 16 0.00 0.00
9:53 am 09:53 Sunny 56 13.3 49 9.4 77 77 NNE 3 6 30.19 1022 10 16 0.00 0.00
10:53 am 10:53 Sunny 62 16.7 52 11.1 70 70 Calm 30.19 1022 10 16 0.00 0.00
11:53 am 11:53 Sunny 68 20 55 12.8 63 63 NNE 6 9 30.17 1022 10 16 0.00 0.00
12:53 pm 12:53 Sunny 72 22.2 57 13.9 59 59 NNE 6 9 30.14 1021 10 16 0.00 0.00
1:53 pm 13:53 Sunny 75 23.9 58 14.4 55 55 VRB 3 6 30.12 1020 10 16 0.00 0.00
2:53 pm 14:53 Sunny 76 24.4 58 14.4 54 54 E 6 9 30.11 1020 10 16 0.00 0.00
3:53 pm 15:53 Sunny 76 24.4 59 15 56 56 NE 3 6 30.11 1020 10 16 0.00 0.00
4:53 pm 16:53 Sunny 74 23.3 58 14.4 57 57 E 6 9 30.11 1020 10 16 0.00 0.00
5:53 pm 17:53 Clear 64 17.8 58 14.4 81 81 Calm 30.13 1020 10 16 0.00 0.00
6:53 pm 18:53 Clear 59 15 58 14.4 96 96 Calm 30.15 1021 10 16 0.00 0.00
7:53 pm 19:53 Clear 57 13.9 56 13.3 96 96 Calm 30.16 1021 10 16 0.00 0.00
8:53 pm 20:53 Clear 56 13.3 56 13.3 100 100 Calm 30.16 1022 10 16 0.00 0.00
9:53 pm 21:53 Clear 51 10.6 51 10.6 100 100 Calm 30.17 1022 10 16 0.00 0.00
10:53 pm 22:53 Clear 52 11.1 52 11.1 100 100 Calm 30.17 1022 10 16 0.00 0.00
11:53 pm 23:53 Clear 52 11.1 52 11.1 100 100 Calm 30.16 1022 10 16 0.00 0.00

Powered by AerisWeather